Location: Bush Observatory
(40.2653°N, 94.3194°W)
Time: 09:07:28
(UTC-06:00)

Vanguard 1 - Visible Passes

Search period start: 01 March 2015 00:00
Search period end: 11 March 2015 01:00
Orbit: 652 x 3834 km, 34.3° (Epoch: 26 February)

Date Brightness Start Highest point End Pass type
(mag) Time Alt. Az. Time Alt. Az. Time Alt. Az.
01 Mar 13.4 00:31:17 10° W 01:05:54 33° ESE 01:14:34 10° ESE visible
01 Mar 12.7 03:18:41 56° SSW 03:18:41 56° SSW 03:37:02 10° SE visible
01 Mar 13.3 05:31:27 18° W 05:41:56 25° SW 05:53:49 10° S visible
01 Mar 12.5 20:11:09 10° SSW 20:23:07 43° SE 20:28:36 37° ESE visible
01 Mar 12.6 22:30:24 10° WSW 23:13:36 - E 22:41:23 54° SW visible
02 Mar 13.3 00:52:57 10° W 01:26:23 37° ESE 01:36:11 10° ESE visible
02 Mar 12.8 03:39:09 48° SW 03:39:59 48° SSW 03:57:45 10° SSE visible
02 Mar 13.5 05:51:56 13° W 06:02:51 18° SW 06:12:12 10° SSW visible
02 Mar 13.0 18:17:12 10° SSE 18:23:35 17° SE 18:33:20 10° E visible
02 Mar 12.4 20:31:44 10° SW 20:44:15 51° SSE 20:49:09 44° ESE visible
02 Mar 12.7 22:51:44 10° WSW 23:34:09 - E 23:01:55 50° WSW visible
03 Mar 13.2 01:14:41 10° W 01:46:56 40° SE 01:57:39 10° ESE visible
03 Mar 12.9 03:59:44 41° SW 04:01:19 41° SW 04:18:07 10° SSE visible
03 Mar 13.7 06:16:26 10° WSW 06:23:46 12° SW 06:27:51 10° SW visible
03 Mar 12.7 18:36:08 10° S 18:44:15 24° SE 18:56:51 10° E visible
03 Mar 12.3 20:52:33 10° SW 21:05:34 58° SSE 21:09:37 52° ESE visible
03 Mar 12.8 23:13:12 10° W 23:54:47 - E 23:22:23 45° WSW visible
04 Mar 13.2 02:07:35 41° SE 02:07:35 41° SE 02:18:54 10° SE visible
04 Mar 13.1 04:20:23 33° SW 04:22:32 33° SW 04:38:04 10° SSE visible
04 Mar 12.5 18:55:53 10° SSW 19:05:01 32° SE 19:17:15 15° E visible
04 Mar 12.2 21:13:34 10° WSW 21:27:03 64° SSE 21:30:01 60° SE visible
04 Mar 13.0 23:34:42 10° W 00:15:29 12° ESE 00:16:20 10° ESE visible
05 Mar 13.2 02:28:17 40° SSE 02:28:17 40° SSE 02:39:55 10° SE visible
05 Mar 13.3 04:41:05 26° SW 04:43:40 26° SW 04:57:24 10° S visible
05 Mar 12.3 19:16:07 10° SSW 19:25:54 40° SE 19:37:33 20° E visible
05 Mar 12.2 21:34:45 10° WSW 21:48:41 69° SSE 21:50:19 67° SE visible
05 Mar 13.2 23:56:15 10° W 00:36:14 14° ESE 00:38:04 10° ESE visible
06 Mar 13.2 02:49:02 37° S 02:49:02 37° S 03:00:38 10° SSE visible
06 Mar 13.5 05:01:51 19° WSW 05:04:46 19° SW 05:15:43 10° SSW visible
06 Mar 12.2 19:36:42 10° SW 19:46:58 48° SSE 19:57:47 25° E visible
06 Mar 12.2 21:56:01 10° WSW 22:10:25 72° S 22:10:32 72° S visible
07 Mar 13.3 00:17:51 10° W 00:57:01 16° ESE 00:59:36 10° ESE visible
07 Mar 13.3 03:09:49 33° S 03:09:49 33° S 03:20:59 10° SSE visible
07 Mar 13.7 05:22:38 13° WSW 05:25:54 13° SW 05:31:41 10° SW visible
07 Mar 12.1 19:57:29 10° SW 20:08:11 56° SSE 20:17:57 30° E visible
07 Mar 12.3 22:17:22 10° W 22:30:41 70° SSW 22:30:41 70° SSW visible
08 Mar 13.5 00:39:30 10° W 01:17:49 17° SE 01:20:55 10° SE visible
08 Mar 13.4 04:30:37 28° SSW 04:30:37 28° SSW 04:40:53 10° SSE visible
08 Mar 12.0 21:18:28 10° WSW 21:29:34 62° SSE 21:38:03 37° E visible
08 Mar 12.4 23:38:47 10° W 23:50:47 64° SW 23:50:47 64° SW visible
09 Mar 13.7 02:01:13 10° W 02:38:36 17° SE 02:41:57 10° SE visible
09 Mar 13.5 04:51:25 22° SSW 04:51:25 22° SSW 05:00:07 10° S visible
09 Mar 12.1 19:21:28 10° SSW 19:29:22 36° SE 19:43:02 10° E visible
09 Mar 12.0 21:39:35 10° WSW 21:51:04 67° SSE 21:58:05 44° ESE visible
10 Mar 12.5 00:00:14 10° W 00:10:49 55° WSW 00:10:49 55° WSW visible
10 Mar 13.8 02:23:03 10° W 02:59:22 17° SSE 03:02:41 10° SSE visible
10 Mar 13.7 05:12:10 16° SSW 05:12:10 16° SSW 05:18:19 10° SSW visible
10 Mar 11.9 19:42:01 10° SW 19:50:21 45° SSE 20:05:20 10° E visible
10 Mar 12.0 22:00:48 10° WSW 22:12:41 70° S 22:18:05 52° ESE visible
